Bei uns kannst du mitfliegen! Besuche uns und lerne uns kennen - als Gast, Pilot oder jemand der es werden möchte.

Kölner Klub für Luftsport e.V.

KKFL.de

Ausbildung – Fliegen – Abenteuer

Ausbildung im KKFL

Ausbildung

Fliegen lernen im Verein
Der KKFL.de bietet eine effiziente, schnelle Ausbildung zur Pivatpilotenlizenz (PPL) in verschiedenen Ausprägungen an. Nach der Ausbildung können diverse Ergänzungen vom Verstellpropeller bis hin zu Nachtflug oder das Fliegen nach Instrumentenflugregeln (IFR) angeschlossen werden.
Fliegen im Verein ist günstig!

Unsere Flotte

Cessna 172 S

D-EOCD
Die Cessna ist als schnelle Schul- und Reisemaschine gleichsam beliebt. Unsere vereins-eigene Flotte sorgt für Abwechlung bei den Piloten und unsere Werft senkt Kosten. In der Ausbildung dürfen Schüler über 'ihre Maschine' mit entscheiden.

Cessna 172 R

D-EFPB

Piper PA 28 II Archer

D-EFPA

Aquila A210

D-EAQJ

Piper PA 28-181

D-ELFF

Flugplatz Hangelar


[Quelle: ADDS]
METAR
EDDK 141950Z 01009KT 340V040 9999 +TSRA FEW013 BKN030CB 19/17 Q1014 BECMG 12003KT NSW =
EDDK 141700Z 1418/1524 16005KT 9999 FEW030 BECMG 1418/1421 VRB03KT PROB30 TEMPO 1418/1422 19015G25KT TSRA SCT025CB PROB30 TEMPO 1503/1509 4000 BR BKN010 BECMG 1509/1512 34005KT PROB30 TEMPO 1512/1521 16015G25KT TSRA BKN020CB BECMG 1515/1518 04005KT BECMG 1521/1524 12003KT
TAF
EDDK 141700Z 1418/1524 16005KT 9999 FEW030 BECMG 1418/1421 VRB03KT PROB30 TEMPO 1418/1422 19015G25KT TSRA SCT025CB PROB30 TEMPO 1503/1509 4000 BR BKN010 BECMG 1509/1512 34005KT PROB30 TEMPO 1512/1521 16015G25KT TSRA BKN020CB BECMG 1515/1518 04005KT BECMG 1521/1524 12003KT =
SR / SS: 04:18 / 18:53 UTC (EDKB 2020-08-14)

Links und Partner

Zu unserem Heimatflugplatz Hangelar
Zu unserer Online-Verwaltung
Zum Pilotenportal der DFS
Zum Deutsche Wetterdienst - Flugwetter

Du willst fliegen?

Während unserer Bürozeiten und auch dazwischen sind wir für deine Fragen da.
Bitte kontaktiere den Verein unter den angegebenen Adressen.
© 2020 - Kölner Klub für Luftsport e.V.
Bonn / Hangelar - EDKB - Germany
Cookies erleichtern die Bereitstellung unserer Dienste. Mit der Nutzung unserer Dienste erklären Sie sich damit einverstanden, dass wir Cookies verwenden.